Flag for Russia Weather past 2 weeks in Yuzhno-Sakhalinsk, Russia

Now
36 °F

Passing clouds.


Feels Like: 31 °F
Forecast: 26 / 39 °F
Wind: 6 mph from Northwest

Location: Yuzhno Airport-Sakhalinsk


UV Index: 3 (Moderate)

Visibility: N/A


Pressure: 29.68 "Hg

Humidity: 65%

Dew point: 25 °F

Location of Yuzhno-SakhalinskLocation

Historic Weather in Yuzhno-Sakhalinsk

°F

Yuzhno-Sakhalinsk temperature yesterday

Maximum temperature yesterday: 41 °F (at 1:00 PM)
Minimum temperature yesterday: 30 °F (at 7:00 AM)
Average temperature yesterday: 36 °F

Past Weeks' High & Low Weather Summary

 TemperatureHumidityPressure
High57 °F (Apr 14, 5:00 PM)100% (Apr 3, 7:30 AM)30.21 "Hg (Apr 3, 7:30 AM)
Low16 °F (Apr 8, 6:30 AM)27% (Apr 14, 5:30 PM)29.06 "Hg (Apr 5, 3:00 PM)
Average32 °F72%29.70 "Hg
* Reported Apr 2 9:00 AM — Apr 17 9:00 AM, Yuzhno-Sakhalinsk, Weather by CustomWeather, © 2014

Note: Actual official high and low records may vary slightly from our data, if they occured in-between our weather recording intervals... More about our weather records

Advertising

Historic Weather Conditions — Data for Previous 24 hours

 ConditionsComfort  
Time TempWeatherWind HumidityBarometerVisibility
9:00 AM
Apr 17
32 °FPassing clouds.No wind80%29.68 "HgN/A
8:30 AM30 °FPassing clouds.No wind86%29.71 "HgN/A
8:00 AM27 °FPassing clouds.No wind93%29.71 "HgN/A
7:30 AM25 °FPassing clouds.No wind93%29.68 "HgN/A
7:00 AM25 °FPassing clouds.3 mph93%29.68 "HgN/A
6:30 AM23 °FPassing clouds.No wind93%29.68 "HgN/A
6:00 AM23 °FPassing clouds.No wind93%29.68 "HgN/A
5:00 AM27 °FPassing clouds.No wind86%29.68 "HgN/A
4:00 AM27 °FPassing clouds.1 mph93%29.68 "HgN/A
3:00 AM28 °FPassing clouds.No wind80%29.68 "HgN/A
2:00 AM28 °FPassing clouds.1 mph80%29.71 "HgN/A
1:00 AM28 °FPassing clouds.3 mph80%29.71 "HgN/A
12:00 AM28 °FPassing clouds.1 mph80%29.71 "HgN/A
11:00 PM
Apr 16
32 °FPassing clouds.3 mph69%29.71 "HgN/A
10:30 PM34 °FPassing clouds.6 mph65%29.71 "HgN/A
10:00 PM34 °FPassing clouds.8 mph65%29.71 "HgN/A
9:30 PM34 °FPassing clouds.6 mph65%29.71 "HgN/A
9:00 PM34 °FScattered clouds.13 mph65%29.68 "HgN/A
8:30 PM34 °FScattered clouds.17 mph60%29.68 "HgN/A
8:00 PM36 °FScattered clouds.15 mph60%29.65 "HgN/A
7:30 PM37 °FScattered clouds.10 mph56%29.65 "HgN/A
7:00 PM39 °FPassing clouds.10 mph48%29.62 "HgN/A
6:30 PM39 °FPassing clouds.15 mph42%29.62 "HgN/A
6:00 PM39 °FPassing clouds.10 mph39%29.59 "HgN/A
5:30 PM39 °FPassing clouds.17 mph42%29.59 "HgN/A
5:00 PM39 °FPassing clouds.10 mph45%29.59 "HgN/A
4:30 PM39 °FScattered clouds.10 mph45%29.59 "HgN/A
4:00 PM39 °FScattered clouds.13 mph48%29.56 "HgN/A
3:30 PM41 °FScattered clouds.13 mph42%29.56 "HgN/A
3:00 PM41 °FScattered clouds.10 mph45%29.56 "HgN/A
2:30 PM39 °FScattered clouds.10 mph48%29.56 "HgN/A
2:00 PM41 °FScattered clouds.10 mph45%29.56 "HgN/A
1:30 PM41 °FScattered clouds.10 mph45%29.56 "HgN/A
1:00 PM41 °FScattered clouds.10 mph49%29.56 "HgN/A
12:30 PM39 °FScattered clouds.8 mph52%29.56 "HgN/A
12:00 PM39 °FScattered clouds.10 mph52%29.53 "HgN/A
10:00 AM37 °FScattered clouds.8 mph65%29.53 "HgN/A
Weather by CustomWeather, © 2014

See weather overview